    Orbital elements:
    1996 RY3                                                 Earth MOID = 0.1249 AU
    Epoch 2013 Nov. 4.0 TT = JDT 2456600.5                  MPC
    M 307.11895              (2000.0)            P               Q
    n   0.75424535     Peri.  288.36236     -0.23716732     -0.96963777
    a   1.1952561      Node   174.25695     +0.94968882     -0.21849118
    e   0.1385841      Incl.   36.56791     -0.20455516     +0.10983716
    P   1.31           H   20.4           G   0.15           U   4
    Residuals in seconds of arc
    960915 566  0.5+  0.6-    130904 703  0.3-  1.0+    130905 204  0.1-  0.4-
    960915 566  0.8+  0.0     130904 703  0.9-  0.4-    130905 I93  0.9+  0.9-
    960915 566  1.1+  0.8-    130904 703  0.1-  0.7+    130905 I93  0.2+  0.1+
    960916 566  0.0   0.6-    130904 703  1.3+  0.1-    130905 I93  0.2+  0.3-
    960916 566  0.1+  1.1-    130904 703  0.2+  0.7-    130905 I93  0.0   0.2-
    960916 566  0.0   0.7-    130904 703  0.0   0.4+    130905 H21  0.2+  0.1-
    960917 557  0.2-  0.2-    130904 703  0.8-  0.0     130905 H21  0.2+  0.2-
    960917 557  0.3-  0.0     130904 703  0.3+  0.3+    130905 H21  0.2+  0.1-
    960917 557  0.2-  0.2-    130904 703  0.0   0.2-    130905 H21  0.1+  0.1-
    960917 557  0.4-  0.6-    130904 C48  0.2-  0.1-    130905 H21  0.1+  0.2-
    960917 566  0.4-  1.4-    130904 C48  0.5-  0.1-    130905 300  1.4+  0.8-
    960917 566  0.0   0.7-    130904 C48  0.2-  0.8+    130905 300  0.9+  1.3-
    960917 566  0.0   0.8-    130904 C48  0.3+  0.8+    130905 300  0.7+  1.5-
    960918 566  0.4+  0.6+    130904 C48  0.1+  0.4+    130905 300  1.0+  0.2-
    960918 566  0.8+  0.4+    130904 C48  0.1-  0.2+    130905 151  0.5-  0.9-
    960918 566  0.7+  0.5+    130904 C48  0.6-  0.1+    130905 151  0.2+  0.1-
    960918 360  0.8-  0.4-    130904 595  0.5-  0.2-    130905 151  0.0   0.5+
    960918 360  0.7-  0.2+    130904 595  0.1+  0.0     130905 A79  0.8-  1.1+
    960918 360  0.4-  0.0     130904 198  0.8+  0.2+    130905 A79  0.5-  1.0+
    960918 118  0.5+  1.2+    130904 A74  0.0   0.1-    130905 A79  0.2-  1.0+
    960918 557  0.4-  1.2+    130904 198  0.0   0.1-    130906 932  0.8+  1.0-
    960918 557  0.0   0.8+    130904 198  0.5+  1.2+    130906 932 (0.8+  1.6-)
    960918 557  0.1-  0.3+    130904 A74  0.0   0.2-    130906 932  0.9+  0.3+
    960918 118  0.5-  0.6+    130904 A74  0.2-  0.1+    130906 291  0.2-  0.3+
    960918 118  0.3-  1.1+    130904 A24  0.5-  0.1-    130906 291  0.2-  0.2+
    960918 118  0.4-  0.8+    130904 A24  0.4+  0.7+    130906 291  0.3-  0.4+
    961001 413  0.1-  0.3-    130904 A24  0.4-  0.6+    130906 850  0.2-  0.5-
    961001 413  0.0   0.5-    130904 204  0.0   0.5-    130906 850  0.1-  0.1-
    961001 413  0.0   0.2+    130905 461  0.1-  0.0     130906 850  0.3-  0.2-
    130904 703  1.1-  0.1-    130905 461  0.2+  0.0     130906 850  0.1+  0.4-
    130904 703  0.3-  0.5+    130905 461  0.1+  0.1-    130906 C43  0.4-  0.2+
    130904 703 (2.0-  0.8-)   130905 461  0.0   0.4-    130906 C43  0.1-  0.0
    130904 703  0.4-  0.1+    130905 204  0.3-  0.2-
    
    Ephemeris:
    1996 RY3                 a,e,i = 1.20, 0.14, 37                  q = 1.0296
    Date    TT    R. A. (2000) Decl.     Delta      r     Elong.  Phase     V
    2013 08 07    00 22 20.3 +40 35 20   0.5566  1.2935   107.2    48.5    21.5
    ...
    2013 08 22    00 41 20.3 +34 36 08   0.4074  1.2674   120.4    43.5    20.6
    ...
    2013 08 30    00 49 20.9 +27 48 25   0.3331  1.2522   130.6    37.8    20.0
    ...
    2013 09 05    00 54 03.9 +19 51 01   0.2840  1.2403   140.4    31.2    19.5
    2013 09 06    00 54 43.8 +18 12 56   0.2767  1.2383   142.2    29.9    19.4
    2013 09 07    00 55 21.6 +16 28 58   0.2696  1.2362   144.0    28.6    19.3
    ...
    2013 09 13    00 58 22.3 +03 56 26   0.2354  1.2238   155.1    20.2    18.7
    ...
    2013 09 21    01 00 19.6 -17 19 00   0.2176  1.2068   156.5    19.3    18.5
    ...
    2013 10 06    00 57 59.8 -51 18 17   0.2741  1.1740   123.6    45.2    19.7
    
    A. U. Tomatic                (C) Copyright 2013 MPC           M.P.E.C. 2013-R60
    

    Read MPEC 2013-R59 Read MPEC 2013-R61


    MPEC number:

    Enter an MPEC number in one of the following forms:

    • 1997-B01 (the full form)
    • J97B01 (the packed version of the full form)
    • B01 (the abbreviated form)